Year,Month,Day,Hour,Minute,Value (Times are PST for temperature in C)
2015,07,19,00,00,20.40
2015,07,19,00,01,20.40
2015,07,19,00,02,20.40
2015,07,19,00,03,20.40
2015,07,19,00,04,20.40
2015,07,19,00,05,20.40
2015,07,19,00,06,20.40
2015,07,19,00,07,20.40
2015,07,19,00,08,20.40
2015,07,19,00,09,20.40
2015,07,19,00,10,20.40
2015,07,19,00,11,20.40
2015,07,19,00,12,20.40
2015,07,19,00,13,20.40
2015,07,19,00,14,20.40
2015,07,19,00,15,20.40
2015,07,19,00,16,20.40
2015,07,19,00,17,20.40
2015,07,19,00,18,20.50
2015,07,19,00,19,20.50
2015,07,19,00,20,20.50
2015,07,19,00,21,20.50
2015,07,19,00,22,20.50
2015,07,19,00,23,20.50
2015,07,19,00,24,20.50
2015,07,19,00,25,20.50
2015,07,19,00,26,20.40
2015,07,19,00,27,20.40
2015,07,19,00,28,20.40
2015,07,19,00,29,20.40
2015,07,19,00,30,20.30
2015,07,19,00,31,20.30
2015,07,19,00,32,20.30
2015,07,19,00,33,20.30
2015,07,19,00,34,20.20
2015,07,19,00,35,20.20
2015,07,19,00,36,20.20
2015,07,19,00,37,20.10
2015,07,19,00,38,20.10
2015,07,19,00,39,20.10
2015,07,19,00,40,20.10
2015,07,19,00,41,20.00
2015,07,19,00,42,20.00
2015,07,19,00,43,19.90
2015,07,19,00,44,19.90
2015,07,19,00,45,19.90
2015,07,19,00,46,19.90
2015,07,19,00,47,19.80
2015,07,19,00,48,19.80
2015,07,19,00,49,19.80
2015,07,19,00,50,19.80
2015,07,19,00,51,19.80
2015,07,19,00,52,19.80
2015,07,19,00,53,19.80
2015,07,19,00,54,19.80
2015,07,19,00,55,19.80
2015,07,19,00,56,19.70
2015,07,19,00,57,19.70
2015,07,19,00,58,19.70
2015,07,19,00,59,19.70
2015,07,19,01,00,19.70
2015,07,19,01,01,19.70
2015,07,19,01,02,19.70
2015,07,19,01,03,19.70
2015,07,19,01,04,19.70
2015,07,19,01,05,19.70
2015,07,19,01,06,19.70
2015,07,19,01,07,19.60
2015,07,19,01,08,19.60
2015,07,19,01,09,19.60
2015,07,19,01,10,19.60
2015,07,19,01,11,19.60
2015,07,19,01,12,19.60
2015,07,19,01,13,19.50
2015,07,19,01,14,19.50
2015,07,19,01,15,19.50
2015,07,19,01,16,19.50
2015,07,19,01,17,19.40
2015,07,19,01,18,19.40
2015,07,19,01,19,19.40
2015,07,19,01,20,19.40
2015,07,19,01,21,19.40
2015,07,19,01,22,19.30
2015,07,19,01,23,19.30
2015,07,19,01,24,19.30
2015,07,19,01,25,19.30
2015,07,19,01,26,19.30
2015,07,19,01,27,19.30
2015,07,19,01,28,19.20
2015,07,19,01,29,19.20
2015,07,19,01,30,19.20
2015,07,19,01,31,19.20
2015,07,19,01,32,19.20
2015,07,19,01,33,19.20
2015,07,19,01,34,19.20
2015,07,19,01,35,19.30
2015,07,19,01,36,19.30
2015,07,19,01,37,19.30
2015,07,19,01,38,19.30
2015,07,19,01,39,19.30
2015,07,19,01,40,19.30
2015,07,19,01,41,19.40
2015,07,19,01,42,19.40
2015,07,19,01,43,19.40
2015,07,19,01,44,19.40
2015,07,19,01,45,19.40
2015,07,19,01,46,19.40
2015,07,19,01,47,19.40
2015,07,19,01,48,19.40
2015,07,19,01,49,19.40
2015,07,19,01,50,19.40
2015,07,19,01,51,19.30
2015,07,19,01,52,19.30
2015,07,19,01,53,19.30
2015,07,19,01,54,19.30
2015,07,19,01,55,19.30
2015,07,19,01,56,19.20
2015,07,19,01,57,19.20
2015,07,19,01,58,19.20
2015,07,19,01,59,19.10
2015,07,19,02,00,19.10
2015,07,19,02,01,19.10
2015,07,19,02,02,19.10
2015,07,19,02,03,19.10
2015,07,19,02,04,19.10
2015,07,19,02,05,19.10
2015,07,19,02,06,19.20
2015,07,19,02,07,19.20
2015,07,19,02,08,19.20
2015,07,19,02,09,19.30
2015,07,19,02,10,19.30
2015,07,19,02,11,19.30
2015,07,19,02,12,19.40
2015,07,19,02,13,19.40
2015,07,19,02,14,19.50
2015,07,19,02,15,19.60
2015,07,19,02,16,19.60
2015,07,19,02,17,19.70
2015,07,19,02,18,19.80
2015,07,19,02,19,19.90
2015,07,19,02,20,20.00
2015,07,19,02,21,20.20
2015,07,19,02,22,20.30
2015,07,19,02,23,20.50
2015,07,19,02,24,20.80
2015,07,19,02,25,20.90
2015,07,19,02,26,21.10
2015,07,19,02,27,21.20
2015,07,19,02,28,21.40
2015,07,19,02,29,21.50
2015,07,19,02,30,21.60
2015,07,19,02,31,21.70
2015,07,19,02,32,21.70
2015,07,19,02,33,21.80
2015,07,19,02,34,21.80
2015,07,19,02,35,21.80
2015,07,19,02,36,21.80
2015,07,19,02,37,21.90
2015,07,19,02,38,21.90
2015,07,19,02,39,21.90
2015,07,19,02,40,21.90
2015,07,19,02,41,21.90
2015,07,19,02,42,21.90
2015,07,19,02,43,21.90
2015,07,19,02,44,21.90
2015,07,19,02,45,21.90
2015,07,19,02,46,21.90
2015,07,19,02,47,21.90
2015,07,19,02,48,21.90
2015,07,19,02,49,21.90
2015,07,19,02,50,21.90
2015,07,19,02,51,21.90
2015,07,19,02,52,21.90
2015,07,19,02,53,21.90
2015,07,19,02,54,21.90
2015,07,19,02,55,21.80
2015,07,19,02,56,21.80
2015,07,19,02,57,21.80
2015,07,19,02,58,21.70
2015,07,19,02,59,21.70
2015,07,19,03,00,21.60
2015,07,19,03,01,21.70
2015,07,19,03,02,21.70
2015,07,19,03,06,21.80
2015,07,19,03,07,21.80
2015,07,19,03,08,21.80
2015,07,19,03,09,21.80
2015,07,19,03,10,21.80
2015,07,19,03,11,21.80
2015,07,19,03,12,21.80
2015,07,19,03,13,21.80
2015,07,19,03,14,21.70
2015,07,19,03,15,21.70
2015,07,19,03,16,21.80
2015,07,19,03,17,21.80
2015,07,19,03,18,21.80
2015,07,19,03,19,21.90
2015,07,19,03,20,21.90
2015,07,19,03,21,21.90
2015,07,19,03,22,21.90
2015,07,19,03,23,22.00
2015,07,19,03,24,22.00
2015,07,19,03,25,22.00
2015,07,19,03,26,22.00
2015,07,19,03,27,22.00
2015,07,19,03,28,22.00
2015,07,19,03,29,21.90
2015,07,19,03,30,21.90
2015,07,19,03,31,21.90
2015,07,19,03,32,21.80
2015,07,19,03,33,21.80
2015,07,19,03,34,21.70
2015,07,19,03,35,21.70
2015,07,19,03,36,21.60
2015,07,19,03,37,21.60
2015,07,19,03,38,21.60
2015,07,19,03,39,21.60
2015,07,19,03,40,21.60
2015,07,19,03,41,21.60
2015,07,19,03,42,21.60
2015,07,19,03,43,21.60
2015,07,19,03,44,21.60
2015,07,19,03,45,21.60
2015,07,19,03,46,21.60
2015,07,19,03,47,21.60
2015,07,19,03,48,21.60
2015,07,19,03,49,21.50
2015,07,19,03,50,21.50
2015,07,19,03,51,21.50
2015,07,19,03,52,21.50
2015,07,19,03,53,21.40
2015,07,19,03,54,21.40
2015,07,19,03,55,21.40
2015,07,19,03,56,21.40
2015,07,19,03,57,21.30
2015,07,19,03,58,21.30
2015,07,19,03,59,21.30
2015,07,19,04,00,21.30
2015,07,19,04,01,21.20
2015,07,19,04,02,21.20
2015,07,19,04,03,21.20
2015,07,19,04,04,21.20
2015,07,19,04,05,21.20
2015,07,19,04,06,21.10
2015,07,19,04,07,21.10
2015,07,19,04,08,21.10
2015,07,19,04,09,21.00
2015,07,19,04,10,21.00
2015,07,19,04,11,20.90
2015,07,19,04,12,20.90
2015,07,19,04,13,20.80
2015,07,19,04,14,20.80
2015,07,19,04,15,20.80
2015,07,19,04,16,20.70
2015,07,19,04,17,20.70
2015,07,19,04,18,20.70
2015,07,19,04,19,20.70
2015,07,19,04,20,20.60
2015,07,19,04,21,20.60
2015,07,19,04,22,20.50
2015,07,19,04,23,20.50
2015,07,19,04,24,20.40
2015,07,19,04,25,20.40
2015,07,19,04,26,20.40
2015,07,19,04,27,20.30
2015,07,19,04,28,20.30
2015,07,19,04,29,20.30
2015,07,19,04,30,20.20
2015,07,19,04,31,20.20
2015,07,19,04,32,20.20
2015,07,19,04,33,20.10
2015,07,19,04,34,20.10
2015,07,19,04,35,20.10
2015,07,19,04,36,20.00
2015,07,19,04,37,19.90
2015,07,19,04,38,19.90
2015,07,19,04,39,19.90
2015,07,19,04,40,19.90
2015,07,19,04,41,19.80
2015,07,19,04,42,19.80
2015,07,19,04,43,19.80
2015,07,19,04,44,19.70
2015,07,19,04,45,19.70
2015,07,19,04,46,19.60
2015,07,19,04,47,19.60
2015,07,19,04,48,19.60
2015,07,19,04,49,19.50
2015,07,19,04,50,19.50
2015,07,19,04,51,19.40
2015,07,19,04,52,19.40
2015,07,19,04,53,19.30
2015,07,19,04,54,19.30
2015,07,19,04,55,19.30
2015,07,19,04,56,19.30
2015,07,19,04,57,19.20
2015,07,19,04,58,19.20
2015,07,19,04,59,19.20
2015,07,19,05,00,19.10
2015,07,19,05,01,19.10
2015,07,19,05,02,19.00
2015,07,19,05,03,19.00
2015,07,19,05,04,18.90
2015,07,19,05,05,18.90
2015,07,19,05,06,18.80
2015,07,19,05,07,18.80
2015,07,19,05,08,18.80
2015,07,19,05,09,18.80
2015,07,19,05,10,18.70
2015,07,19,05,11,18.70
2015,07,19,05,12,18.70
2015,07,19,05,13,18.70
2015,07,19,05,14,18.60
2015,07,19,05,15,18.60
2015,07,19,05,16,18.60
2015,07,19,05,17,18.50
2015,07,19,05,18,18.50
2015,07,19,05,19,18.50
2015,07,19,05,20,18.40
2015,07,19,05,21,18.40
2015,07,19,05,22,18.40
2015,07,19,05,23,18.40
2015,07,19,05,24,18.40
2015,07,19,05,25,18.40
2015,07,19,05,26,18.40
2015,07,19,05,27,18.40
2015,07,19,05,28,18.30
2015,07,19,05,29,18.30
2015,07,19,05,30,18.30
2015,07,19,05,31,18.30
2015,07,19,05,32,18.30
2015,07,19,05,33,18.30
2015,07,19,05,34,18.20
2015,07,19,05,35,18.20
2015,07,19,05,36,18.20
2015,07,19,05,37,18.20
2015,07,19,05,38,18.20
2015,07,19,05,39,18.20
2015,07,19,05,40,18.20
2015,07,19,05,41,18.20
2015,07,19,05,42,18.20
2015,07,19,05,43,18.20
2015,07,19,05,44,18.20
2015,07,19,05,45,18.20
2015,07,19,05,46,18.20
2015,07,19,05,47,18.20
2015,07,19,05,48,18.20
2015,07,19,05,49,18.20
2015,07,19,05,50,18.20
2015,07,19,05,51,18.20
2015,07,19,05,52,18.20
2015,07,19,05,53,18.20
2015,07,19,05,54,18.20
2015,07,19,05,55,18.20
2015,07,19,05,56,18.20
2015,07,19,05,57,18.20
2015,07,19,05,58,18.20
2015,07,19,05,59,18.20
2015,07,19,06,00,18.20
2015,07,19,06,01,18.20
2015,07,19,06,02,18.20
2015,07,19,06,03,18.20
2015,07,19,06,04,18.20
2015,07,19,06,05,18.20
2015,07,19,06,06,18.20
2015,07,19,06,07,18.20
2015,07,19,06,08,18.20
2015,07,19,06,09,18.20
2015,07,19,06,10,18.10
2015,07,19,06,11,18.10
2015,07,19,06,12,18.10
2015,07,19,06,13,18.10
2015,07,19,06,14,18.10
2015,07,19,06,15,18.10
2015,07,19,06,16,18.10
2015,07,19,06,17,18.10
2015,07,19,06,18,18.10
2015,07,19,06,19,18.10
2015,07,19,06,20,18.10
2015,07,19,06,21,18.10
2015,07,19,06,22,18.10
2015,07,19,06,23,18.20
2015,07,19,06,24,18.20
2015,07,19,06,25,18.20
2015,07,19,06,26,18.20
2015,07,19,06,27,18.30
2015,07,19,06,28,18.30
2015,07,19,06,29,18.30
2015,07,19,06,30,18.30
2015,07,19,06,31,18.30
2015,07,19,06,32,18.30
2015,07,19,06,33,18.30
2015,07,19,06,34,18.30
2015,07,19,06,35,18.40
2015,07,19,06,36,18.40
2015,07,19,06,37,18.40
2015,07,19,06,38,18.40
2015,07,19,06,39,18.40
2015,07,19,06,40,18.40
2015,07,19,06,41,18.50
2015,07,19,06,42,18.50
2015,07,19,06,43,18.50
2015,07,19,06,44,18.60
2015,07,19,06,45,18.70
2015,07,19,06,46,18.70
2015,07,19,06,47,18.80
2015,07,19,06,48,18.80
2015,07,19,06,49,18.80
2015,07,19,06,50,18.80
2015,07,19,06,51,18.90
2015,07,19,06,52,18.90
2015,07,19,06,53,19.00
2015,07,19,06,54,19.00
2015,07,19,06,55,19.10
2015,07,19,06,56,19.10
2015,07,19,06,57,19.10
2015,07,19,06,58,19.20
2015,07,19,06,59,19.20
2015,07,19,07,00,19.20
2015,07,19,07,01,19.30
2015,07,19,07,02,19.30
2015,07,19,07,03,19.30
2015,07,19,07,04,19.40
2015,07,19,07,05,19.40
2015,07,19,07,06,19.40
2015,07,19,07,07,19.50
2015,07,19,07,08,19.50
2015,07,19,07,09,19.60
2015,07,19,07,10,19.60
2015,07,19,07,11,19.70
2015,07,19,07,12,19.80
2015,07,19,07,13,19.80
2015,07,19,07,14,19.90
2015,07,19,07,15,20.00
2015,07,19,07,16,20.00
2015,07,19,07,17,20.10
2015,07,19,07,18,20.10
2015,07,19,07,19,20.10
2015,07,19,07,20,20.20
2015,07,19,07,21,20.20
2015,07,19,07,22,20.20
2015,07,19,07,23,20.30
2015,07,19,07,24,20.30
2015,07,19,07,25,20.30
2015,07,19,07,26,20.40
2015,07,19,07,27,20.40
2015,07,19,07,28,20.50
2015,07,19,07,29,20.50
2015,07,19,07,30,20.60
2015,07,19,07,31,20.60
2015,07,19,07,32,20.70
2015,07,19,07,33,20.70
2015,07,19,07,34,20.70
2015,07,19,07,35,20.70
2015,07,19,07,36,20.80
2015,07,19,07,37,20.80
2015,07,19,07,38,20.80
2015,07,19,07,39,20.90
2015,07,19,07,40,20.90
2015,07,19,07,41,20.90
2015,07,19,07,42,21.00
2015,07,19,07,43,21.00
2015,07,19,07,44,21.00
2015,07,19,07,45,21.10
2015,07,19,07,46,21.10
2015,07,19,07,47,21.10
2015,07,19,07,48,21.10
2015,07,19,07,49,21.20
2015,07,19,07,50,21.20
2015,07,19,07,51,21.20
2015,07,19,07,52,21.30
2015,07,19,07,53,21.30
2015,07,19,07,54,21.30
2015,07,19,07,55,21.30
2015,07,19,07,56,21.30
2015,07,19,07,57,21.30
2015,07,19,07,58,21.40
2015,07,19,07,59,21.40
2015,07,19,08,00,21.40
2015,07,19,08,01,21.40
2015,07,19,08,02,21.40
2015,07,19,08,03,21.50
2015,07,19,08,04,21.50
2015,07,19,08,05,21.50
2015,07,19,08,06,21.50
2015,07,19,08,07,21.60
2015,07,19,08,08,21.60
2015,07,19,08,09,21.60
2015,07,19,08,10,21.60
2015,07,19,08,11,21.60
2015,07,19,08,12,21.60
2015,07,19,08,13,21.70
2015,07,19,08,14,21.70
2015,07,19,08,15,21.70
2015,07,19,08,16,21.70
2015,07,19,08,17,21.80
2015,07,19,08,18,21.80
2015,07,19,08,19,21.80
2015,07,19,08,20,21.80
2015,07,19,08,21,21.80
2015,07,19,08,22,21.80
2015,07,19,08,23,21.80
2015,07,19,08,24,21.80
2015,07,19,08,25,21.80
2015,07,19,08,26,21.80
2015,07,19,08,27,21.80
2015,07,19,08,28,21.80
2015,07,19,08,29,21.80
2015,07,19,08,30,21.80
2015,07,19,08,31,21.70
2015,07,19,08,32,21.70
2015,07,19,08,33,21.70
2015,07,19,08,34,21.70
2015,07,19,08,35,21.70
2015,07,19,08,36,21.70
2015,07,19,08,37,21.70
2015,07,19,08,38,21.70
2015,07,19,08,39,21.60
2015,07,19,08,40,21.60
2015,07,19,08,41,21.60
2015,07,19,08,42,21.60
2015,07,19,08,43,21.60
2015,07,19,08,44,21.60
2015,07,19,08,45,21.60
2015,07,19,08,46,21.60
2015,07,19,08,47,21.50
2015,07,19,08,48,21.50
2015,07,19,08,49,21.50
2015,07,19,08,50,21.50
2015,07,19,08,51,21.50
2015,07,19,08,52,21.50
2015,07,19,08,53,21.50
2015,07,19,08,54,21.40
2015,07,19,08,55,21.40
2015,07,19,08,56,21.40
2015,07,19,08,57,21.40
2015,07,19,08,58,21.40
2015,07,19,08,59,21.30
2015,07,19,09,00,21.30
2015,07,19,09,01,21.30
2015,07,19,09,02,21.30
2015,07,19,09,03,21.30
2015,07,19,09,04,21.30
2015,07,19,09,05,21.30
2015,07,19,09,06,21.30
2015,07,19,09,07,21.30
2015,07,19,09,08,21.30
2015,07,19,09,09,21.40
2015,07,19,09,10,21.40
2015,07,19,09,11,21.40
2015,07,19,09,12,21.40
2015,07,19,09,13,21.40
2015,07,19,09,14,21.40
2015,07,19,09,15,21.40
2015,07,19,09,16,21.40
2015,07,19,09,17,21.40
2015,07,19,09,18,21.40
2015,07,19,09,19,21.40
2015,07,19,09,20,21.40
2015,07,19,09,21,21.40
2015,07,19,09,22,21.40
2015,07,19,09,23,21.40
2015,07,19,09,24,21.40
2015,07,19,09,25,21.50
2015,07,19,09,26,21.50
2015,07,19,09,27,21.50
2015,07,19,09,28,21.50
2015,07,19,09,29,21.60
2015,07,19,09,30,21.60
2015,07,19,09,31,21.70
2015,07,19,09,32,21.70
2015,07,19,09,33,21.80
2015,07,19,09,34,21.80
2015,07,19,09,35,21.80
2015,07,19,09,36,21.90
2015,07,19,09,37,21.90
2015,07,19,09,38,21.90
2015,07,19,09,39,21.90
2015,07,19,09,40,21.90
2015,07,19,09,41,22.00
2015,07,19,09,42,22.00
2015,07,19,09,43,22.10
2015,07,19,09,44,22.10
2015,07,19,09,45,22.10
2015,07,19,09,46,22.20
2015,07,19,09,47,22.30
2015,07,19,09,48,22.30
2015,07,19,09,49,22.40
2015,07,19,09,50,22.50
2015,07,19,09,51,22.60
2015,07,19,09,52,22.70
2015,07,19,09,53,22.80
2015,07,19,09,54,22.80
2015,07,19,09,55,22.90
2015,07,19,09,56,23.00
2015,07,19,09,57,23.10
2015,07,19,09,58,23.20
2015,07,19,09,59,23.20
2015,07,19,10,00,23.20
2015,07,19,10,01,23.20
2015,07,19,10,02,23.20
2015,07,19,10,03,23.20
2015,07,19,10,04,23.20
2015,07,19,10,05,23.20
2015,07,19,10,06,23.20
2015,07,19,10,07,23.20
2015,07,19,10,08,23.20
2015,07,19,10,09,23.20
2015,07,19,10,10,23.30
2015,07,19,10,11,23.30
2015,07,19,10,12,23.30
2015,07,19,10,13,23.30
2015,07,19,10,14,23.30
2015,07,19,10,15,23.20
2015,07,19,10,16,23.20
2015,07,19,10,17,23.20
2015,07,19,10,18,23.20
2015,07,19,10,19,23.20
2015,07,19,10,20,23.20
2015,07,19,10,21,23.20
2015,07,19,10,22,23.10
2015,07,19,10,23,23.10
2015,07,19,10,24,23.10
2015,07,19,10,25,23.10
2015,07,19,10,26,23.10
2015,07,19,10,27,23.20
2015,07,19,10,28,23.20
2015,07,19,10,29,23.10
2015,07,19,10,30,23.10
2015,07,19,10,31,23.10
2015,07,19,10,32,23.20
2015,07,19,10,33,23.20
2015,07,19,10,34,23.20
2015,07,19,10,35,23.30
2015,07,19,10,36,23.30
2015,07,19,10,37,23.40
2015,07,19,10,38,23.40
2015,07,19,10,39,23.50
2015,07,19,10,40,23.50
2015,07,19,10,41,23.50
2015,07,19,10,42,23.60
2015,07,19,10,43,23.60
2015,07,19,10,44,23.60
2015,07,19,10,45,23.60
2015,07,19,10,46,23.70
2015,07,19,10,47,23.70
2015,07,19,10,48,23.80
2015,07,19,10,49,23.80
2015,07,19,10,50,24.00
2015,07,19,10,51,24.10
2015,07,19,10,52,24.20
2015,07,19,10,53,24.30
2015,07,19,10,54,24.40
2015,07,19,10,55,24.50
2015,07,19,10,56,24.60
2015,07,19,10,57,24.60
2015,07,19,10,58,24.70
2015,07,19,10,59,24.70
2015,07,19,11,00,24.80
2015,07,19,11,01,24.80
2015,07,19,11,02,24.80
2015,07,19,11,03,24.80
2015,07,19,11,04,24.80
2015,07,19,11,05,24.80
2015,07,19,11,06,24.80
2015,07,19,11,07,24.80
2015,07,19,11,08,24.70
2015,07,19,11,09,24.70
2015,07,19,11,10,24.70
2015,07,19,11,11,24.70
2015,07,19,11,12,24.80
2015,07,19,11,13,24.80
2015,07,19,11,14,24.80
2015,07,19,11,15,24.80
2015,07,19,11,16,24.80
2015,07,19,11,17,24.80
2015,07,19,11,18,24.80
2015,07,19,11,19,24.70
2015,07,19,11,20,24.80
2015,07,19,11,21,24.80
2015,07,19,11,22,24.80
2015,07,19,11,23,24.80
2015,07,19,11,24,24.80
2015,07,19,11,25,24.90
2015,07,19,11,26,24.90
2015,07,19,11,27,24.90
2015,07,19,11,28,24.90
2015,07,19,11,29,24.90
2015,07,19,11,30,24.90
2015,07,19,11,31,24.80
2015,07,19,11,32,24.70
2015,07,19,11,33,24.70
2015,07,19,11,34,24.60
2015,07,19,11,35,24.60
2015,07,19,11,36,24.60
2015,07,19,11,37,24.60
2015,07,19,11,38,24.60
2015,07,19,11,39,24.50
2015,07,19,11,40,24.40
2015,07,19,11,41,24.40
2015,07,19,11,42,24.30
2015,07,19,11,43,24.30
2015,07,19,11,44,24.30
2015,07,19,11,45,24.30
2015,07,19,11,46,24.30
2015,07,19,11,47,24.40
2015,07,19,11,48,24.50
2015,07,19,11,49,24.60
2015,07,19,11,50,24.60
2015,07,19,11,51,24.70
2015,07,19,11,52,24.70
2015,07,19,11,53,24.80
2015,07,19,11,54,24.80
2015,07,19,11,55,24.80
2015,07,19,11,56,24.80
2015,07,19,11,57,24.80
2015,07,19,11,58,24.80
2015,07,19,11,59,24.80
2015,07,19,12,00,24.80
2015,07,19,12,01,24.80
2015,07,19,12,02,24.70
2015,07,19,12,03,24.60
2015,07,19,12,04,24.60
2015,07,19,12,05,24.60
2015,07,19,12,06,24.80
2015,07,19,12,07,24.90
2015,07,19,12,08,25.00
2015,07,19,12,09,25.00
2015,07,19,12,10,25.00
2015,07,19,12,11,25.10
2015,07,19,12,12,25.10
2015,07,19,12,13,25.10
2015,07,19,12,14,25.00
2015,07,19,12,15,25.00
2015,07,19,12,16,24.90
2015,07,19,12,17,24.90
2015,07,19,12,18,24.80
2015,07,19,12,19,24.80
2015,07,19,12,20,24.70
2015,07,19,12,21,24.70
2015,07,19,12,22,24.70
2015,07,19,12,23,24.80
2015,07,19,12,24,24.80
2015,07,19,12,25,25.00
2015,07,19,12,26,25.10
2015,07,19,12,27,25.30
2015,07,19,12,28,25.50
2015,07,19,12,29,25.70
2015,07,19,12,30,25.80
2015,07,19,12,31,26.00
2015,07,19,12,32,26.10
2015,07,19,12,33,26.20
2015,07,19,12,34,26.20
2015,07,19,12,35,26.20
2015,07,19,12,36,26.20
2015,07,19,12,37,26.20
2015,07,19,12,38,26.10
2015,07,19,12,39,26.10
2015,07,19,12,40,26.10
2015,07,19,12,41,26.20
2015,07,19,12,42,26.30
2015,07,19,12,43,26.40
2015,07,19,12,44,26.50
2015,07,19,12,45,26.60
2015,07,19,12,46,26.70
2015,07,19,12,47,26.70
2015,07,19,12,48,26.80
2015,07,19,12,49,26.80
2015,07,19,12,50,26.80
2015,07,19,12,51,27.00
2015,07,19,12,52,27.10
2015,07,19,12,53,27.20
2015,07,19,12,54,27.20
2015,07,19,12,55,27.20
2015,07,19,12,56,27.10
2015,07,19,12,57,27.00
2015,07,19,12,58,26.90
2015,07,19,12,59,26.80
2015,07,19,13,00,26.80
2015,07,19,13,01,26.80
2015,07,19,13,02,26.70
2015,07,19,13,03,26.60
2015,07,19,13,04,26.50
2015,07,19,13,05,26.50
2015,07,19,13,06,26.60
2015,07,19,13,07,26.60
2015,07,19,13,08,26.70
2015,07,19,13,09,26.80
2015,07,19,13,10,26.90
2015,07,19,13,11,27.10
2015,07,19,13,12,27.20
2015,07,19,13,13,27.30
2015,07,19,13,14,27.40
2015,07,19,13,15,27.40
2015,07,19,13,16,27.50
2015,07,19,13,17,27.60
2015,07,19,13,18,27.70
2015,07,19,13,19,27.70
2015,07,19,13,20,27.60
2015,07,19,13,21,27.60
2015,07,19,13,22,27.70
2015,07,19,13,23,27.80
2015,07,19,13,24,27.80
2015,07,19,13,25,27.80
2015,07,19,13,26,27.80
2015,07,19,13,27,27.80
2015,07,19,13,28,27.90
2015,07,19,13,29,28.00
2015,07,19,13,30,28.20
2015,07,19,13,31,28.30
2015,07,19,13,32,28.40
2015,07,19,13,33,28.40
2015,07,19,13,34,28.40
2015,07,19,13,35,28.50
2015,07,19,13,36,28.60
2015,07,19,13,37,28.60
2015,07,19,13,38,28.60
2015,07,19,13,39,28.60
2015,07,19,13,40,28.60
2015,07,19,13,41,28.60
2015,07,19,13,42,28.60
2015,07,19,13,43,28.70
2015,07,19,13,44,28.70
2015,07,19,13,45,28.80
2015,07,19,13,46,28.80
2015,07,19,13,47,28.80
2015,07,19,13,48,28.90
2015,07,19,13,49,28.90
2015,07,19,13,50,28.90
2015,07,19,13,51,29.00
2015,07,19,13,52,29.00
2015,07,19,13,53,29.10
2015,07,19,13,54,29.20
2015,07,19,13,55,29.30
2015,07,19,13,56,29.40
2015,07,19,13,57,29.50
2015,07,19,13,58,29.60
2015,07,19,13,59,29.60
2015,07,19,14,00,29.50
2015,07,19,14,01,29.50
2015,07,19,14,02,29.50
2015,07,19,14,03,29.40
2015,07,19,14,04,29.30
2015,07,19,14,05,29.20
2015,07,19,14,06,29.10
2015,07,19,14,07,29.10
2015,07,19,14,08,28.90
2015,07,19,14,09,28.80
2015,07,19,14,10,28.80
2015,07,19,14,11,28.70
2015,07,19,14,12,28.70
2015,07,19,14,13,28.70
2015,07,19,14,14,28.70
2015,07,19,14,15,28.80
2015,07,19,14,16,28.80
2015,07,19,14,17,28.90
2015,07,19,14,18,28.90
2015,07,19,14,19,28.80
2015,07,19,14,20,28.80
2015,07,19,14,21,28.80
2015,07,19,14,22,28.80
2015,07,19,14,23,28.80
2015,07,19,14,24,28.80
2015,07,19,14,25,28.80
2015,07,19,14,26,28.80
2015,07,19,14,27,28.80
2015,07,19,14,28,28.70
2015,07,19,14,29,28.60
2015,07,19,14,30,28.50
2015,07,19,14,31,28.40
2015,07,19,14,32,28.40
2015,07,19,14,33,28.40
2015,07,19,14,34,28.30
2015,07,19,14,35,28.30
2015,07,19,14,36,28.20
2015,07,19,14,37,28.10
2015,07,19,14,38,28.00
2015,07,19,14,39,27.90
2015,07,19,14,40,28.00
2015,07,19,14,41,28.10
2015,07,19,14,42,28.00
2015,07,19,14,43,28.00
2015,07,19,14,44,28.00
2015,07,19,14,45,27.90
2015,07,19,14,46,27.90
2015,07,19,14,47,27.80
2015,07,19,14,48,27.80
2015,07,19,14,49,27.80
2015,07,19,14,50,27.80
2015,07,19,14,51,27.80
2015,07,19,14,52,27.80
2015,07,19,14,53,27.90
2015,07,19,14,54,27.90
2015,07,19,14,55,28.00
2015,07,19,14,56,28.00
2015,07,19,14,57,28.10
2015,07,19,14,58,28.10
2015,07,19,14,59,28.10
2015,07,19,15,00,28.20
2015,07,19,15,01,28.30
2015,07,19,15,02,28.30
2015,07,19,15,03,28.40
2015,07,19,15,04,28.50
2015,07,19,15,05,28.60
2015,07,19,15,06,28.70
2015,07,19,15,07,28.80
2015,07,19,15,08,28.90
2015,07,19,15,09,29.00
2015,07,19,15,10,29.10
2015,07,19,15,11,29.20
2015,07,19,15,12,29.20
2015,07,19,15,13,29.10
2015,07,19,15,14,29.00
2015,07,19,15,15,29.00
2015,07,19,15,16,29.00
2015,07,19,15,17,29.00
2015,07,19,15,18,29.10
2015,07,19,15,19,29.10
2015,07,19,15,20,29.00
2015,07,19,15,21,29.00
2015,07,19,15,22,29.10
2015,07,19,15,23,29.10
2015,07,19,15,24,29.10
2015,07,19,15,25,29.00
2015,07,19,15,26,28.90
2015,07,19,15,27,28.90
2015,07,19,15,28,29.00
2015,07,19,15,29,29.00
2015,07,19,15,30,29.10
2015,07,19,15,31,29.00
2015,07,19,15,32,29.00
2015,07,19,15,33,29.00
2015,07,19,15,34,28.90
2015,07,19,15,35,28.80
2015,07,19,15,36,28.80
2015,07,19,15,37,28.80
2015,07,19,15,38,28.80
2015,07,19,15,39,28.80
2015,07,19,15,40,28.70
2015,07,19,15,41,28.70
2015,07,19,15,42,28.60
2015,07,19,15,43,28.70
2015,07,19,15,44,28.60
2015,07,19,15,45,28.60
2015,07,19,15,46,28.60
2015,07,19,15,47,28.60
2015,07,19,15,48,28.70
2015,07,19,15,49,28.80
2015,07,19,15,50,28.90
2015,07,19,15,51,29.10
2015,07,19,15,52,29.30
2015,07,19,15,53,29.50
2015,07,19,15,54,29.70
2015,07,19,15,55,29.80
2015,07,19,15,56,29.90
2015,07,19,15,57,30.10
2015,07,19,15,58,30.20
2015,07,19,15,59,30.40
2015,07,19,16,00,30.50
2015,07,19,16,01,30.60
2015,07,19,16,02,30.60
2015,07,19,16,03,30.60
2015,07,19,16,04,30.50
2015,07,19,16,05,30.40
2015,07,19,16,06,30.30
2015,07,19,16,07,30.20
2015,07,19,16,08,30.20
2015,07,19,16,09,30.20
2015,07,19,16,10,30.10
2015,07,19,16,11,30.10
2015,07,19,16,12,30.10
2015,07,19,16,13,30.00
2015,07,19,16,14,30.00
2015,07,19,16,15,29.90
2015,07,19,16,16,29.80
2015,07,19,16,17,29.70
2015,07,19,16,18,29.60
2015,07,19,16,19,29.50
2015,07,19,16,20,29.40
2015,07,19,16,21,29.30
2015,07,19,16,22,29.20
2015,07,19,16,23,29.10
2015,07,19,16,24,29.10
2015,07,19,16,25,29.00
2015,07,19,16,26,29.10
2015,07,19,16,27,29.10
2015,07,19,16,28,29.20
2015,07,19,16,29,29.20
2015,07,19,16,30,29.20
2015,07,19,16,31,29.20
2015,07,19,16,32,29.20
2015,07,19,16,33,29.20
2015,07,19,16,34,29.20
2015,07,19,16,35,29.30
2015,07,19,16,36,29.40
2015,07,19,16,37,29.50
2015,07,19,16,38,29.50
2015,07,19,16,39,29.60
2015,07,19,16,40,29.60
2015,07,19,16,41,29.50
2015,07,19,16,42,29.40
2015,07,19,16,43,29.30
2015,07,19,16,44,29.20
2015,07,19,16,45,29.00
2015,07,19,16,46,28.80
2015,07,19,16,47,28.60
2015,07,19,16,48,28.50
2015,07,19,16,49,28.30
2015,07,19,16,50,28.20
2015,07,19,16,51,28.10
2015,07,19,16,52,28.10
2015,07,19,16,53,28.10
2015,07,19,16,54,28.00
2015,07,19,16,55,28.00
2015,07,19,16,56,28.00
2015,07,19,16,57,28.00
2015,07,19,16,58,28.10
2015,07,19,16,59,28.20
2015,07,19,17,00,28.20
2015,07,19,17,01,28.30
2015,07,19,17,02,28.50
2015,07,19,17,03,28.60
2015,07,19,17,04,28.70
2015,07,19,17,05,28.90
2015,07,19,17,06,29.00
2015,07,19,17,07,29.10
2015,07,19,17,08,29.30
2015,07,19,17,09,29.40
2015,07,19,17,10,29.50
2015,07,19,17,11,29.60
2015,07,19,17,12,29.70
2015,07,19,17,13,29.70
2015,07,19,17,14,29.70
2015,07,19,17,15,29.70
2015,07,19,17,16,29.70
2015,07,19,17,17,29.70
2015,07,19,17,18,29.70
2015,07,19,17,19,29.70
2015,07,19,17,20,29.70
2015,07,19,17,21,29.70
2015,07,19,17,22,29.60